Regional Weather Roundup
Issued by NWS Sterling, VA

Home | Current Version | Previous Version | Text Only | Print | Product List | Glossary Off
Versions: 1 2 3 4 5 6 7 8 9 10 11 12 13 14 15 16 17 18 19 20 21 22 23 24 25 26 27 28 29 30 31 32 33 34 35 36 37 38 39 40 41 42 43 44 45 46 47 48 49 50

000
ASUS41 KLWX 101810
RWRLWX

REGIONAL WEATHER ROUNDUP
NATIONAL WEATHER SERVICE BALTIMORE MD/WASHINGTON DC
100 PM EST WED FEB 10 2016

Note: "FAIR" indicates few or no clouds below 12,000 feet
with no significant weather and/or obstructions to visibility.
 TC=TEMPERATURE CELSIUS

 * =Non NWS site. Station does not report precipitation (e.g. rain,
    snow, etc.), thunder, or fog.

DCZ001-MDZ009-015-VAZ040>042-051-053>054-101900-
WASHINGTON METRO

CITY           SKY/WX    TMP DP  RH WIND       PRES   REMARKS
WASHINGTON NAT FAIR      39  18  42 NW10G22   29.79F
DULLES         FAIR      35  15  44 NW17      29.79S WCI  25
ANDREWS AFB    SUNNY     36  16  43 W15G22    29.76F WCI  27
FT BELVOIR     PTSUNNY   37  15  39 W10       29.79F
QUANTICO       PTSUNNY   39  17  41 NW10G18   29.81F
COLLEGE PARK*  FAIR      36  16  44 W13G22    29.78S WCI  27
LEESBURG*      PTSUNNY   34  21  60 W12G18    29.80S WCI  25
MANASSAS*      PTSUNNY   37  18  44 NW13      29.79F
GAITHERSBURG*  MOSUNNY   30  14  51 W12G24    29.80S WCI  21

$$

MDZ006>007-011-014-101900-
BALTIMORE METRO

CITY           SKY/WX    TMP DP  RH WIND       PRES   REMARKS
BWI AIRPORT    PTSUNNY   37  18  46 W16G24    29.76F WCI  28
MD SCIENCE CTR   N/A     34  15  46 MISG      29.75F
MARTIN STATE   PTSUNNY   36  21  55 W16G25    29.78F WCI  26
ANNAPOLIS      MOSUNNY   37  18  46 W10G18    29.77F
FORT MEADE*    MOSUNNY   36  19  51 NW12G18   29.79F WCI  27

$$

MDZ012-015-019>023-101900-
MARYLAND EASTERN SHORE

CITY           SKY/WX    TMP DP  RH WIND       PRES   REMARKS
OCEAN CITY     CLOUDY    36  23  59 NW8G21    29.77F
SALISBURY      CLOUDY    35  20  54 W16G23    29.77F WCI  25
BAY BRIDGE AP*   N/A     36  18  48 W10       29.78F WCI  28
CAMBRIDGE*     MOSUNNY   34  19  55 W10G16    29.78F WCI  26
EASTON*        PTSUNNY   36  21  55 NW17G25   29.81F WCI  25

$$

MDZ017>025-101900-
SOUTHERN MARYLAND

CITY           SKY/WX    TMP DP  RH WIND       PRES   REMARKS
PATUXENT RIVER MOSUNNY   39  19  44 W13       29.79F
ST INIGOES     SUNNY     38  20  48 W10G20    29.79F
LEONARDTOWN*   SUNNY     36  18  48 W7G16     29.79F

$$

MDZ003>005-101900-
NORTH CENTRAL MARYLAND

CITY           SKY/WX    TMP DP  RH WIND       PRES   REMARKS
FREDERICK*     CLOUDY    32  19  59 NW13      29.81F WCI  22
HAGERSTOWN APT CLOUDY    29  13  51 W16       29.76F WCI  17
WESTMINSTER*   PTSUNNY   30  27  86 W15G24    29.73F WCI  19

$$

MDZ501>502-101900-
WESTERN MARYLAND

CITY           SKY/WX    TMP DP  RH WIND       PRES   REMARKS
OAKLAND*       CLOUDY    12   5  73 W16G24    29.68F HAZE    WCI  -4
CUMBERLAND*    MOSUNNY   28   9  43 NW10G20   29.85F WCI  19

$$

VAZ025>031-101900-
SHENANDOAH VALLEY

CITY           SKY/WX    TMP DP  RH WIND       PRES   REMARKS
WINCHESTER*    CLOUDY    34  16  47 W14G21    29.77F WCI  24
FRONT ROYAL*   CLOUDY    32  12  43 W9G18     29.77F WCI  24
LURAY*         MOCLDY    34  12  40 W17       29.76F WCI  23
NEW MARKET*    FAIR      33  11  41 W12G22    29.76F WCI  24
STAUNTON*      FAIR      34  12  39 W12       29.79F WCI  26
WAYNESBORO*    MOCLDY    29   7  39 W15G21    29.78S WCI  18

$$

WVZ021-048>050-054>055-101900-
EASTERN WEST VIRGINIA PANHANDLE

CITY           SKY/WX    TMP DP  RH WIND       PRES   REMARKS
MARTINSBURG    PTSUNNY   32  12  43 W22G30    29.78F WCI  19
PETERSBURG*    FAIR      27   8  44 CALM      29.82F

$$

VAZ036>039-050-101900-
CENTRAL FOOTHILLS

CITY           SKY/WX    TMP DP  RH WIND       PRES   REMARKS
CHARLOTTESVILL FAIR      37  12  35 VRB7      29.78F
CULPEPER*      CLOUDY    35  14  42 W3        29.79F
ORANGE*        FAIR      36  16  44 W12       29.80F WCI  27
GORDONSVILLE*  FAIR      37  13  37 SW9G16    29.77F
WARRENTON*     PTSUNNY   39  22  50 SW10      29.78F

$$

VAZ055>057-101900-
NORTH AND CENTRAL PIEDMONT

CITY           SKY/WX    TMP DP  RH WIND       PRES   REMARKS
FREDERICKSBRG* PTSUNNY   39  19  45 W10       29.79F
STAFFORD*      PTSUNNY   36  16  44 NW7       29.83F

$$

NCZ024-NYZ072-PAZ021-071-VAZ022-071-101900-
OTHER REGIONAL OBSERVATIONS

CITY           SKY/WX    TMP DP  RH WIND       PRES   REMARKS
NEW YORK CITY  CLOUDY    38  22  52 MISG      29.62F
PHILADELPHIA   CLOUDY    35  18  49 W16G26    29.72F WCI  25
PITTSBURGH     LGT SNOW  19  11  70 SW17      29.80S WCI   4
ROANOKE        CLOUDY    30   8  39 W18G24    29.87F WCI  18
RICHMOND       FAIR      39  15  37 W16       29.80F
RALEIGH        MOSUNNY   38  14  37 W8G16     29.88F

$$

ANZ530>537-101900-
MARINE OBSERVATIONS

STATION/POSITION TIME  TEMP    WIND        PRES
                       AIR SEA DIR/SP/G
                 (UTC) (F)     (DEG/KT/KT) (MB)
THOMAS PT LIGHT  1800   34 39  290/ 16/ 18 1008.6F
BALT KEY BRIDGE  1700   33     280/ 19/ 22 1008.4F
COVE POINT       1700   34     330/ 10/ 13 1009.6F
LEWISETTA        1700   35 41  280/ 10/ 14 1009.3F
SOLOMONS ISLAND  1700   36 41  290/  9/ 12   N/A
PINEY POINT      1700          330/ 13/ 15   N/A

$$




USA.gov is the U.S. government's official web portal to all federal, state and local government web resources and services.